Location: Be Tobo
(6.6442°N, 10.6239°W)
Time: 01:12:32
(UTC+00:00)

ATLAS 2AS CENTAUR R/B - Pass Details

Date: 18 September 2020
Orbit: 939 x 1273 km, 63.7° (Epoch: 19 October)

Event Time Altitude Azimuth Distance (km) Brightness Sun altitude
Rises 18:59:12 0° 170° (S) 3,995 5.6 -5.5°
Reaches altitude 10° 19:02:45 10° 154° (SSE) 3,092 4.8 -6.4°
Maximum altitude 19:07:51 20° 110° (ESE) 2,503 4.1 -7.6°
Drops below altitude 10° 19:13:06 10° 67° (ENE) 3,219 4.7 -8.9°
Sets 19:16:50 0° 51° (NE) 4,211 5.4 -9.9°
